Home > Weather > Rodez > Past weeks

Flag for France Past Weather in Rodez, Midi-Pyrénées, France — Yesterday and Last 2 Weeks

Now
73 °F

Passing clouds.


Feels Like: 77 °F
Forecast: 53 / 77 °F
Wind: 8 mph from Northwest

Location: Rodez Airport

Current Time: Jun 28, 2016 at 8:53:49 PM

Latest Report: Jun 28, 2016 at 8:00 PM


Visibility: N/A

Pressure: 30.07 "Hg (27.92 "Hg at 642m altitude)

Humidity: 57%

Dew Point: 57 °F

Location of RodezLocation

Past Weather in Rodez — Graph

°F

Rodez Temperature Yesterday

Maximum temperature yesterday: 70 °F (at 4:00 PM)
Minimum temperature yesterday: 48 °F (at 7:00 AM)
Average temperature yesterday: 60 °F

High & Low Weather Summary for the Past Weeks

 TemperatureHumidityPressure
High84 °F (Jun 23, 1:30 PM)100% (Jun 13, 10:30 PM)30.33 "Hg (Jun 13, 10:30 PM)
Low43 °F (Jun 20, 6:30 AM)30% (Jun 23, 11:00 AM)29.59 "Hg (Jun 15, 7:00 PM)
Average61 °F77%30.08 "Hg
* Reported Jun 13 7:00 PM — Jun 28 7:30 PM, Rodez, Weather by CustomWeather, © 2016

Note: Actual official high and low records may vary slightly from our data, if they occured in-between our weather recording intervals... More about our weather records

Advertising

Rodez Weather History for the Previous 24 Hours

Scroll right to see more
 ConditionsComfort  
Time TempWeatherWind HumidityBarometerVisibility
7:30 PM
Tue, Jun 28
75 °FPassing clouds.9 mph57%30.07 "HgN/A
7:00 PM75 °FPassing clouds.8 mph61%30.07 "HgN/A
6:30 PM77 °FPassing clouds.7 mph54%30.07 "HgN/A
6:00 PM77 °FPassing clouds.7 mph54%30.07 "HgN/A
5:30 PM77 °FPassing clouds.7 mph54%30.07 "HgN/A
5:00 PM77 °FSunny.5 mph54%30.09 "Hg10 mi
4:30 PM77 °FSunny.3 mph54%30.09 "Hg10 mi
4:00 PM77 °FPassing clouds.5 mph51%30.09 "HgN/A
3:30 PM75 °FPassing clouds.3 mph47%30.09 "HgN/A
3:00 PM73 °FSunny.3 mph53%30.12 "Hg10 mi
2:30 PM73 °FSunny.3 mph50%30.12 "Hg10 mi
2:00 PM72 °FPassing clouds.3 mph57%30.12 "HgN/A
1:30 PM70 °FPassing clouds.3 mph69%30.15 "HgN/A
1:00 PM70 °FSunny.5 mph64%30.15 "Hg10 mi
12:30 PM68 °FPassing clouds.5 mph73%30.15 "HgN/A
12:00 PM66 °FPassing clouds.6 mph78%30.18 "HgN/A
11:30 AM66 °FSunny.5 mph73%30.15 "Hg10 mi
11:00 AM64 °FPartly sunny.2 mph78%30.18 "HgN/A
10:30 AM61 °FLow clouds.1 mph83%30.18 "HgN/A
10:00 AM57 °FLow clouds.No wind94%30.18 "HgN/A
9:30 AM55 °FLight fog.No wind100%30.18 "Hg6 mi
9:00 AM55 °FFog.No wind100%30.18 "Hg1 mi
8:30 AM55 °FFog.No wind100%30.18 "Hg0 mi
8:00 AM55 °FFog.No wind100%30.18 "Hg0 mi
7:30 AM54 °FDense fog.No wind100%30.18 "Hg1 mi
7:00 AM52 °FLow clouds.No wind100%30.18 "HgN/A
6:30 AM50 °FPassing clouds.1 mph100%30.18 "Hg1 mi
6:00 AM50 °FFog.2 mph94%30.18 "Hg1 mi
5:30 AM50 °FPassing clouds.1 mph94%30.18 "HgN/A
5:00 AM52 °FFog.No wind94%30.18 "Hg1 mi
4:30 AM52 °FClear.1 mph94%30.18 "Hg10 mi
4:00 AM52 °FFog.No wind100%30.18 "Hg1 mi
3:30 AM52 °FClear.No wind100%30.18 "Hg10 mi
3:00 AM52 °FClear.2 mph100%30.21 "Hg10 mi
2:30 AM52 °FClear.3 mph100%30.21 "Hg10 mi
2:00 AM54 °FClear.2 mph94%30.21 "Hg10 mi
1:30 AM54 °FClear.3 mph100%30.21 "Hg10 mi
1:00 AM54 °FClear.2 mph100%30.21 "Hg10 mi
12:30 AM55 °FClear.6 mph94%30.24 "Hg10 mi
12:00 AM55 °FClear.6 mph94%30.24 "Hg10 mi
11:30 PM
Mon, Jun 27
57 °FClear.7 mph88%30.24 "Hg10 mi
11:00 PM59 °FClear.8 mph88%30.21 "Hg10 mi
10:30 PM59 °FSunny.8 mph82%30.21 "Hg10 mi
10:00 PM61 °FSunny.8 mph77%30.21 "Hg10 mi
9:30 PM61 °FSunny.9 mph77%30.21 "Hg10 mi
9:00 PM64 °FSunny.9 mph68%30.21 "Hg10 mi
8:30 PM66 °FSunny.12 mph64%30.21 "Hg10 mi
8:00 PM68 °FSunny.12 mph60%30.21 "Hg10 mi
Weather by CustomWeather, © 2016

See weather overviewHow to use our weather pages